Epoch 2000 Jan. 17.0 TT = JDT 2451560.5
T 2000 Jan. 27.34855 TT Marsden
q 5.9218889 (2000.0) P Q
z -0.0001445 Peri. 55.10855 +0.70756040 +0.46923450
+/-0.0000094 Node 88.86217 +0.33960438 -0.88150044
e 1.0008554 Incl. 148.09742 +0.61969924 -0.05268740
星図
光度変化
m1 = 6.0 + 5 logΔ + 10.0 log r
軌道要素は Dr. Brian G. Marsden の計算によるもので、
M.P.E.C. 2000-O22
に掲載されたものです。
星図は StellaNavigator Ver.2.0 for Windows
(アストロアーツ
編著 / アスキー出版局刊) で作成したものです。
光度グラフはComet for
Windowsで作成したものです。
Copyright(C) Seiichi Yoshida (comet@aerith.net). All rights reserved.